Location: Beinheim
(48.8633°N, 8.0845°E)
Time: 13:08:08
(UTC+00:00)

Daily predictions for brighter satellites

Satellite Brightness Start Highest point End
(mag) Time Altitude Azimuth Time Altitude Azimuth Time Altitude Azimuth
BREEZE-M DEB (TANK) 4.0 19:25:00 10° W 19:29:13 59° S 19:36:31 10° ESE
USA 307 3.7 19:29:52 10° WNW 19:34:02 50° NNE 19:38:13 10° E
Cosmos 1437 4.4 19:34:11 10° SE 19:35:51 15° E 19:37:34 10° NE
Cosmos 968 Rocket 3.9 19:32:50 10° SSW 19:38:05 73° WNW 19:43:19 10° NNE
NOSS 3-3 (A) 4.3 19:33:37 10° S 19:38:53 39° ESE 19:44:49 10° NE
NOSS 3-3 (C) 4.3 19:33:44 10° S 19:39:00 39° ESE 19:44:55 10° NE
ATLAS 2AS CENTAUR R/B 4.1 19:34:18 10° NW 19:41:07 34° NNE 19:47:31 10° E
Intercosmos 24 3.6 19:38:02 10° S 19:41:40 65° E 19:45:17 10° NNE
Cosmos 1354 Rocket 4.2 19:37:08 10° S 19:42:12 53° ESE 19:47:18 10° NNE
Sich 1 3.1 19:39:40 10° N 19:44:02 87° WSW 19:48:24 10° S
S3M 4.1 19:37:54 10° S 19:44:16 81° E 19:50:36 10° N
USA 245 4.1 19:43:47 10° ESE 19:45:07 14° ENE 19:46:29 10° NNE
SJ 16-02 3.2 19:43:03 10° ESE 19:45:14 14° E 19:47:25 10° ENE
OBJECT-B 2.6 19:44:09 10° SSW 19:47:04 31° W 19:50:01 10° NNW
USA 308 3.5 19:43:28 10° WNW 19:47:42 54° NNE 19:51:55 10° E
Meteor 1-26 Rocket 4.4 19:42:41 10° SSE 19:48:07 51° E 19:53:27 10° NNE
SPOT 1/Viking Rocket 4.1 19:43:22 10° SE 19:48:16 43° ENE 19:53:10 10° N
Cosmos 2315 Rocket 4.3 19:43:57 10° SSE 19:50:03 50° E 19:56:11 10° NNE
Cosmos 1500 4.0 19:49:28 10° N 19:52:57 34° ENE 19:56:07 12° SE
USA 215 4.4 19:47:48 10° ENE 19:53:57 46° N 20:00:07 10° WNW
BREEZE M DEB (TANK) 2.2 19:50:58 10° W 19:57:10 82° N 19:59:35 10° E
Terra 3.5 19:54:31 10° ESE 19:57:54 20° ENE 20:01:17 10° NNE
Cosmos 2082 Rocket 3.3 19:53:59 10° NNW 19:59:00 32° NE 20:03:59 10° ESE
Cosmos 1151 Rocket 3.1 19:58:18 10° S 20:02:35 59° E 20:06:55 10° NNE
X-37B 2.0 19:59:57 10° WSW 20:02:40 25° SSW 20:04:43 14° SSE
SPOT 3 Rocket 3.6 19:57:38 10° SSE 20:02:48 87° ENE 20:07:59 10° NNW
CREW DRAGON DEMO-1 DEB 2.7 20:00:21 10° WNW 20:02:59 64° NNE 20:05:17 13° E
SPOT 5 4.1 19:59:20 11° ESE 20:03:33 31° ENE 20:08:10 10° N
Cosmos 1437 Rocket 4.2 20:00:05 10° SW 20:03:46 40° WNW 20:07:34 10° N
COSMOS 2406 3.5 20:00:03 10° NNW 20:05:39 58° ENE 20:10:34 14° SE
Cosmos 2084 3.5 20:03:04 10° SSW 20:07:03 50° SE 20:11:11 10° NE
Resurs 01 Rocket 1.8 20:03:01 10° S 20:07:27 77° WSW 20:11:56 10° NNW
USA 290 4.0 20:04:56 10° NW 20:07:46 28° WSW 20:10:34 10° SSW
Cosmos 1933 4.0 20:10:19 10° SSW 20:14:17 58° WNW 20:18:17 10° N
Cosmos 1538 Rocket 4.4 20:09:15 10° NNW 20:14:32 54° ENE 20:18:45 15° SE
Cosmos 773 Rocket 4.1 20:12:37 10° NNW 20:17:58 84° WSW 20:22:41 13° SSE
MetOp-B 4.2 20:15:13 10° SSE 20:20:35 86° WSW 20:25:59 10° NNW
Cosmos 1271 Rocket 4.1 20:19:16 17° SE 20:21:09 24° E 20:24:26 10° NE
Cosmos 2278 Rocket 2.5 20:20:00 10° S 20:25:20 45° ESE 20:30:43 10° NE
Cosmos 1602 4.5 20:21:40 10° NNW 20:25:26 51° W 20:29:12 10° S
Spot 2 Rocket 3.6 20:22:06 15° SSE 20:26:13 67° ENE 20:31:15 10° N
BREEZE-M DEB (TANK) 1.0 20:24:23 10° W 20:26:35 78° N 20:27:56 19° E
Landsat 7 4.2 20:23:12 10° S 20:27:55 65° WSW 20:32:41 10° NNW
Cosmos 1782 3.0 20:23:57 10° SSW 20:27:56 74° W 20:31:57 10° N
USA 305 2.9 20:23:56 10° WNW 20:28:13 82° NNE 20:31:23 18° ESE
IGS 5A 4.2 20:24:52 10° S 20:28:54 51° W 20:32:59 10° NNW
Cosmos 1844 Rocket 4.2 20:24:40 10° WSW 20:29:52 39° NW 20:35:07 10° NNE
Cosmos 1242 Rocket 4.0 20:27:15 10° SW 20:30:37 38° WNW 20:33:58 10° N
Cosmos 1515 Rocket 3.7 20:29:37 14° S 20:33:17 57° E 20:37:36 10° NNE
ERS-1 Rocket 3.3 20:30:20 18° SE 20:33:52 53° ENE 20:38:46 10° N
CZ-4C R/B 3.1 20:30:05 10° NW 20:37:16 77° SW 20:43:47 18° SSE
Cosmos 1633 Rocket 3.9 20:34:58 10° NNW 20:39:13 47° W 20:43:27 10° SSW
Meteor 1-11 Rocket 4.2 20:38:14 10° N 20:44:04 52° ENE 20:47:53 21° SE
deb Kosmos-1763 3.9 20:42:41 10° NNW 20:46:14 87° ENE 20:47:57 29° SSE
ATLAS 5 CENTAUR R/B 3.7 20:41:22 10° WNW 20:46:23 31° WSW 20:51:47 11° S
USA 306 2.8 20:43:15 10° WNW 20:47:32 82° SSW 20:49:58 25° SE
Cosmos 1812 2.7 20:47:18 16° S 20:50:23 89° W 20:54:16 10° N
Cosmos 1328 Rocket 4.2 20:46:05 10° SSW 20:50:27 57° WNW 20:54:50 10° N
SWARM A 4.5 20:47:21 10° N 20:50:39 66° W 20:52:43 21° SSW
Cosmos 1470 Rocket 4.0 20:47:07 10° NNW 20:51:34 61° W 20:55:01 16° S
Cosmos 1777 Rocket 4.0 20:47:04 10° SSW 20:52:17 85° WNW 20:57:32 10° NNE
Cosmos 1340 Rocket 4.3 20:50:29 10° N 20:53:56 26° ENE 20:55:28 20° ESE
ARIANE 5 R/B 2.7 20:52:22 21° S 20:55:15 72° WSW 20:59:36 10° NNW
Cosmos 1666 2.6 20:54:53 10° NNW 20:58:38 82° W 21:00:28 28° S
CARTOSAT-1 3.7 20:56:42 22° S 20:59:27 71° WSW 21:03:47 10° NNW
Meteor 2-12 Rocket 4.5 20:55:38 10° N 21:01:41 66° ENE 21:05:22 25° SSE
Cosmos 1833 Rocket 3.1 20:57:52 10° NW 21:03:25 57° WSW 21:07:04 21° S
Meteor 1-5 Rocket 4.4 20:59:14 10° NNW 21:04:34 64° W 21:08:23 19° S
Cosmos 1933 Rocket 3.8 21:01:30 10° NNW 21:05:50 65° W 21:08:25 23° S
Cosmos 2154 Rocket 4.1 20:59:39 10° N 21:05:58 65° ENE 21:09:42 25° SSE
BREEZE-M R/B 1.8 21:04:14 10° W 21:06:38 75° N 21:07:49 29° ENE
Cosmos 923 Rocket 4.1 21:02:11 10° NNW 21:07:26 66° ENE 21:10:12 28° SE
SL-24 DEB 4.4 21:05:35 29° SE 21:07:40 55° E 21:12:11 10° N
Cosmos 1898 Rocket 4.5 21:07:15 26° SE 21:08:42 30° E 21:13:16 10° NE
Cosmos 1536 3.1 21:05:12 10° N 21:09:11 51° ENE 21:10:33 34° SE
Meteor 1-10 Rocket 4.1 21:05:30 17° S 21:09:50 82° E 21:15:33 10° NNE
Cosmos 2184 Rocket 4.0 21:07:10 10° N 21:13:25 82° W 21:17:32 22° S
Cosmos 1743 3.8 21:10:04 10° N 21:13:33 31° ENE 21:14:28 27° E
USA 307 3.0 21:09:55 10° WNW 21:14:08 60° SW 21:15:37 37° SSE
H-2A R/B 3.5 21:12:37 10° NNE 21:16:47 59° ESE 21:18:18 36° SSE
Cosmos 2074 Rocket 4.1 21:11:37 10° NNW 21:17:56 74° W 21:22:14 22° S
NOSS 3-4 (A) 3.9 21:12:32 10° NW 21:19:29 77° SW 21:24:06 27° SSE
NOSS 3-4 (C) 3.9 21:12:40 10° NW 21:19:36 78° SW 21:24:13 27° SSE
Cosmos 990 Rocket 4.3 21:20:01 31° SSE 21:21:59 46° ESE 21:27:00 10° NNE
SJ 16-02 1.5 21:19:29 15° SSW 21:23:11 74° WNW 21:27:39 10° NNE
Nadezhda 1 Rocket 4.0 21:19:51 24° S 21:23:52 73° E 21:30:06 10° NNE
Cosmos 2297 4.4 21:22:46 30° SE 21:24:20 35° ESE 21:29:27 10° NE
Cosmos 1733 Rocket 4.1 21:22:43 10° N 21:26:39 32° ENE 21:27:49 28° ESE
USA 308 3.2 21:23:33 10° WNW 21:27:43 50° SW 21:28:43 40° S
ATLAS 2AS CENTAUR R/B 2.8 21:25:38 10° NW 21:33:07 84° NE 21:37:04 29° SE
Terra 2.0 21:33:01 31° S 21:35:12 64° WSW 21:39:58 10° NNW
Iridium 4 Rocket 4.3 21:30:59 16° SSW 21:35:31 57° W 21:41:22 10° N
USA 215 4.1 21:30:05 10° E 21:36:18 48° NNE 21:42:32 10° WNW
Cosmos 1544 3.0 21:32:52 10° N 21:36:30 74° E 21:37:03 59° SE
SPOT 5 3.9 21:38:33 23° SSW 21:41:26 44° W 21:46:29 10° NNW
ERBS 3.6 21:38:54 10° NW 21:41:59 35° NNE 21:43:15 25° ENE
Cosmos 2082 Rocket 2.6 21:37:53 10° NW 21:43:22 54° WSW 21:45:50 31° S
Cosmos 2112 Rocket 4.0 21:40:44 10° NNW 21:46:08 88° ENE 21:48:11 39° SSE
Cosmos 2228 Rocket 3.5 21:45:34 27° SSW 21:47:52 59° WNW 21:52:18 10° N
Cosmos 44 3.5 21:44:29 10° NW 21:49:59 86° NE 21:51:59 40° SE
Cosmos 2366 rocket 4.4 21:47:22 10° N 21:53:23 50° ENE 21:55:56 32° SE
Spot 4 4.3 21:55:19 37° ESE 21:56:50 51° ENE 22:01:33 10° N
Cosmos 1271 Rocket 4.4 21:54:20 16° SW 21:56:59 32° WNW 22:00:38 10° N
Cosmos 2084 Rocket 3.6 21:53:49 10° NW 21:58:05 71° NE 21:59:14 46° ESE
Cosmos 2341 Rocket 4.0 21:54:55 10° N 22:01:21 85° E 22:04:08 37° SSE
BREEZE-M DEB (TANK) 3.7 21:55:16 10° W 22:01:41 50° N 22:03:26 19° ENE
Meteor 1-27 Rocket 4.1 21:58:45 23° SSW 22:02:30 64° WNW 22:08:25 10° N
Cosmos 1515 3.6 22:04:29 67° ESE 22:04:35 67° E 22:08:21 10° NNE
USA 305 4.3 22:04:17 10° W 22:07:27 25° SW 22:07:27 25° SW
Cosmos 2278 Rocket 3.6 22:04:21 10° WSW 22:09:33 36° NW 22:14:47 10° NNE
Cosmos 1937 Rocket 3.4 22:09:32 47° S 22:10:55 69° ESE 22:16:05 10° NNE
Cosmos 1862 Rocket 3.6 22:10:39 55° SE 22:11:06 59° E 22:15:22 10° NNE
SL-24 R/B - RUBIN 2 4.0 22:06:28 10° NW 22:11:57 66° SW 22:13:07 49° S
Cosmos 1680 Rocket 4.0 22:08:04 10° NNW 22:13:12 50° WSW 22:14:52 37° SSW
Cosmos 1943 Rocket 2.2 22:13:55 44° S 22:15:32 63° ESE 22:21:06 10° NNE
Cosmos 2218 Rocket 4.0 22:09:33 10° N 22:15:51 74° E 22:18:16 40° SSE
Cosmos 2369 Rocket 2.8 22:17:10 36° ESE 22:17:47 37° ESE 22:22:57 10° NE
Gbstr 26 Del rocket 4.0 22:13:00 10° WNW 22:20:28 84° SSW 22:23:48 30° ESE
Meteor 1-19 Rocket 4.1 22:19:24 47° SSE 22:20:51 68° E 22:26:14 10° NNE
Cosmos 1238 Rocket 3.7 22:17:07 10° N 22:23:24 79° W 22:25:13 45° S
Gblst 52 Del rocket 4.4 22:18:36 10° WNW 22:25:41 90° NNE 22:29:37 24° ESE
Cosmos 858 Rocket 4.4 22:24:21 46° SSW 22:25:58 87° ESE 22:31:15 10° NNE
Meteor 2-9 Rocket 4.2 22:20:59 10° NNW 22:26:50 89° W 22:28:36 47° S
Okean 1 3.3 22:29:36 68° SW 22:29:57 75° W 22:33:58 10° N
Cosmos 1340 Rocket 4.1 22:26:46 10° NNW 22:30:24 31° W 22:31:03 30° WSW
Okean 1-7 4.0 22:30:59 33° E 22:30:59 33° E 22:34:50 10° NNE
Cosmos 1818 3.6 22:27:27 10° NW 22:32:56 69° SW 22:34:12 51° S
Cosmos 1707 Rocket 4.4 22:32:59 34° WSW 22:34:19 45° WNW 22:38:35 10° N
Cosmos 1656 Rocket 4.5 22:35:33 32° ESE 22:35:54 32° ESE 22:40:45 10° NE
DNEPR-1 R/B 3.9 22:34:46 37° SSW 22:37:04 84° SE 22:42:00 10° NE
SL-8 Rocket 4.1 22:32:55 10° NNW 22:39:12 67° W 22:41:32 40° SSW
ALOS 2 2.5 22:41:06 64° SE 22:41:39 74° ENE 22:46:03 10° N
Meteor 2-4 Rocket 3.7 22:47:05 49° SSE 22:48:32 69° E 22:54:08 10° NNE
Cosmos 1743 4.4 22:46:05 10° NW 22:49:09 23° W 22:49:32 22° W
Cosmos 1898 Rocket 4.4 22:47:28 22° WSW 22:50:35 46° WNW 22:55:44 10° NNE
SL-27 R/B 3.6 22:50:59 10° N 22:53:51 34° NE 22:53:51 34° NE
SL-08 R/B 4.4 22:50:11 10° N 22:56:26 84° E 22:58:29 46° SSE
BREEZE-M DEB (TANK) 4.2 22:41:31 10° WNW 22:56:51 71° SSW 22:58:40 43° SE
Cosmos 1975 3.3 22:56:39 10° NNW 23:00:28 49° W 23:00:28 49° W
SJ 16-02 4.2 23:00:48 10° WNW 23:02:37 12° NW 23:04:26 10° NNW
RESURS DK-1 2.4 22:59:03 10° NNW 23:03:14 69° ENE 23:03:31 66° E
Cosmos 1733 Rocket 4.4 23:00:42 10° NNW 23:04:21 27° W 23:04:54 26° WSW
Cosmos 2150 Rocket 4.3 23:04:29 48° SE 23:05:10 51° ESE 23:10:19 10° NNE
Cosmos 1833 4.2 23:01:44 10° NNW 23:07:31 78° ENE 23:09:23 45° SE
Cosmos 1461 3.1 23:07:22 57° SW 23:08:17 80° NW 23:12:56 10° NE
Cosmos 372 Rocket 4.0 23:07:02 47° SW 23:08:25 71° WNW 23:13:32 10° NNE
SeaSat 1 3.4 23:04:04 10° NE 23:08:31 33° ESE 23:08:33 33° ESE
Cosmos 2242 Rocket 3.4 23:09:01 77° S 23:09:21 89° E 23:13:52 10° N
Meteor 1-12 Rocket 4.4 23:05:05 10° N 23:10:59 70° ENE 23:12:43 46° SE
ISS -1.5 23:18:16 19° ENE 23:18:16 19° ENE 23:19:21 10° ENE
Cosmos 468 4.4 23:12:10 10° NNW 23:17:28 81° WSW 23:18:27 59° S
Cosmos 494 Rocket 3.9 23:13:45 10° NNW 23:18:59 81° ENE 23:20:07 55° SE
USA 215 3.2 23:13:57 18° ESE 23:19:00 86° NNE 23:25:35 10° NW
Cosmos 1908 Rocket 4.0 23:15:04 10° NNW 23:19:24 49° W 23:19:43 48° WSW
Cosmos 1300 Rocket 4.2 23:16:47 10° N 23:21:02 45° ENE 23:21:41 41° E
Okean 2 Rocket 4.0 23:19:00 10° N 23:23:07 38° ENE 23:23:56 34° E
ATLAS 2AS CENTAUR R/B 3.9 23:17:35 10° WNW 23:23:13 25° WSW 23:24:29 24° SW
Nimbus 7 Rocket 4.3 23:18:55 10° NNE 23:24:50 89° E 23:26:37 48° SSW
Cosmos 1867 3.5 23:25:56 57° S 23:26:59 74° SE 23:32:28 10° NE
Cosmos 1125 Rocket 3.5 23:26:49 55° SSE 23:27:35 62° ESE 23:32:45 10° NNE
Cosmos 44 Rocket 3.8 23:23:55 10° NW 23:29:08 62° NE 23:31:23 33° ESE
SAR-Lupe-2 4.3 23:29:37 10° N 23:32:57 45° WNW 23:32:57 45° WNW
Cosmos 1378 3.3 23:34:53 71° N 23:34:53 71° N 23:38:15 10° N
ATLAS CENTAUR R/B 1.8 23:38:29 45° ENE 23:38:29 45° ENE 23:41:24 10° NE
Cosmos 2344 4.3 23:30:14 10° NW 23:39:24 87° SW 23:51:07 13° SE
Cosmos 1821 Rocket 4.2 23:33:07 10° NNW 23:39:27 64° W 23:41:25 44° SSW
Cosmos 1934 Rocket 3.9 23:33:57 10° N 23:40:08 78° E 23:42:09 45° SSE
USA 281 4.1 23:36:59 12° ESE 23:42:41 45° NE 23:48:51 10° NNW
USA 81 4.5 23:43:47 10° N 23:49:00 55° E 23:50:37 40° SE
Cosmos 1703 Rocket 4.4 23:48:52 37° W 23:49:31 39° WNW 23:53:40 10° N
Okean 3 3.4 23:50:46 67° WSW 23:51:01 69° W 23:55:16 10° N
Cosmos 1782 Rocket 4.2 23:47:00 10° NNW 23:51:12 41° W 23:51:22 41° W
Meteor 1-15 Rocket 4.2 23:48:28 10° NNW 23:54:11 87° W 23:55:50 49° S
Lacrosse 5 3.0 23:54:51 29° ESE 23:54:51 29° ESE 23:58:48 10° ENE
